Date String (YYYY-MM-DD hh:mm:ss) UTC,Instrument flags,Ambient pressure (hPa),Sample flow (lpm),Bypass flow (lpm),Sample temperature (°C),Ambient temperature (°C),ASC tube jacket temperature (°C),LED temperature (°C),Box temperature (°C),Sample RH (%),Span deviation,Mass concentration (μg/m³),Mass concentration (μg/m³),Mass concentration (μg/m³)
DateTimeUTC,F1_M11,P_M11,Q1_M11,Q2_M11,T1_M11,T2_M11,T3_M11,T4_M11,T5_M11,U1_M11,ZSPAN_M11,X2_M11,X0_M11,X1_M11
2022-09-19 20:00:00,,0824.6,4.99,0.00,29.7,26.7,00.0,38.3,31.5,11.0,0000.0,0002.23,0007.19,0001.91
2022-09-19 20:01:00,,0824.7,5.01,0.00,29.7,26.9,00.0,38.3,31.5,11.2,0000.0,0002.17,0007.63,0001.91
2022-09-19 20:02:00,,0824.6,5.00,0.00,29.7,27.1,00.0,38.3,31.4,11.5,0000.0,0002.13,0007.52,0001.90
2022-09-19 20:03:00,,0824.6,5.00,0.00,29.6,27.4,00.0,38.3,31.3,11.7,0000.0,0002.12,0007.36,0001.89
2022-09-19 20:04:00,,0824.5,4.99,0.00,29.6,27.7,00.0,38.3,31.4,11.6,0000.0,0002.11,0005.31,0001.89
2022-09-19 20:05:00,,0824.5,5.00,0.00,29.7,28.0,00.0,38.3,31.4,11.4,0000.0,0002.11,0005.29,0001.88
2022-09-19 20:06:00,,0824.8,4.99,0.00,29.7,28.2,00.0,38.3,31.5,11.6,0000.0,0002.11,0005.31,0001.88
2022-09-19 20:07:00,,0824.5,5.00,0.00,29.7,28.4,00.0,38.3,31.6,11.6,0000.0,0002.12,0005.21,0001.88
2022-09-19 20:08:00,,0824.5,5.00,0.00,29.8,28.5,00.0,38.3,31.7,11.5,0000.0,0002.14,0005.21,0001.90
2022-09-19 20:09:00,,0824.6,5.00,0.00,29.8,27.8,00.0,38.3,31.7,11.4,0000.0,0002.12,0004.42,0001.91
2022-09-19 20:10:00,,0824.4,5.00,0.00,29.7,26.7,00.0,38.3,31.6,11.4,0000.0,0002.08,0004.09,0001.90
2022-09-19 20:11:00,,0824.4,5.00,0.00,29.7,26.8,00.0,38.3,31.5,11.2,0000.0,0002.07,0005.80,0001.89
2022-09-19 20:12:00,,0824.4,5.01,0.00,29.7,27.0,00.0,38.3,31.4,10.8,0000.0,0002.09,0005.56,0001.89
2022-09-19 20:13:00,,0824.4,5.01,0.00,29.6,27.3,00.0,38.3,31.3,11.3,0000.0,0002.14,0005.68,0001.90
2022-09-19 20:14:00,,0824.4,4.99,0.00,29.6,27.6,00.0,38.3,31.4,11.9,0000.0,0002.17,0006.39,0001.92
2022-09-19 20:15:00,,0824.5,5.01,0.00,29.6,27.9,00.0,38.3,31.4,12.1,0000.0,0002.17,0006.42,0001.96
2022-09-19 20:16:00,,0824.4,5.00,0.00,29.7,28.1,00.0,38.3,31.5,11.7,0000.0,0002.17,0007.08,0001.98
2022-09-19 20:17:00,,0824.5,5.00,0.00,29.7,28.3,00.0,38.3,31.6,11.6,0000.0,0002.22,0007.31,0002.00
2022-09-19 20:18:00,,0824.5,5.02,0.00,29.8,28.2,00.0,38.3,31.7,11.6,0000.0,0002.26,0007.46,0002.01
2022-09-19 20:19:00,,0824.5,4.99,0.00,29.7,27.0,00.0,38.3,31.6,11.8,0000.0,0002.32,0007.62,0002.03
2022-09-19 20:20:00,,0824.5,4.99,0.00,29.7,26.4,00.0,38.3,31.5,11.5,0000.0,0002.39,0007.70,0002.05
2022-09-19 20:21:00,,0824.5,5.00,0.00,29.7,26.7,00.0,38.2,31.4,11.8,0000.0,0002.44,0007.76,0002.07
2022-09-19 20:22:00,,0824.4,5.00,0.00,29.6,27.0,00.0,38.2,31.2,11.8,0000.0,0002.50,0005.74,0002.10
2022-09-19 20:23:00,,0824.4,5.00,0.00,29.6,27.3,00.0,38.2,31.3,12.2,0000.0,0002.52,0005.19,0002.13
2022-09-19 20:24:00,,0824.4,4.99,0.00,29.6,27.6,00.0,38.2,31.4,12.2,0000.0,0002.53,0005.87,0002.16
2022-09-19 20:25:00,,0824.4,5.01,0.00,29.6,27.9,00.0,38.2,31.4,12.4,0000.0,0002.53,0005.19,0002.17
2022-09-19 20:26:00,,0824.4,4.99,0.00,29.6,28.1,00.0,38.2,31.5,13.4,0000.0,0002.53,0005.24,0002.16
2022-09-19 20:27:00,,0824.6,5.00,0.00,29.7,28.3,00.0,38.2,31.6,14.0,0000.0,0002.63,0005.42,0002.23
2022-09-19 20:28:00,,0824.6,5.01,0.00,29.7,28.3,00.0,38.3,31.7,14.1,0000.0,0002.74,0005.61,0002.30
2022-09-19 20:29:00,,0824.5,5.00,0.00,29.7,27.2,00.0,38.3,31.6,14.3,0000.0,0002.81,0005.58,0002.37
2022-09-19 20:30:00,,0824.4,5.00,0.00,29.7,26.4,00.0,38.2,31.5,14.4,0000.0,0002.90,0005.49,0002.45
2022-09-19 20:31:00,,0824.4,4.99,0.00,29.6,26.6,00.0,38.2,31.4,14.6,0000.0,0003.00,0006.22,0002.54
2022-09-19 20:32:00,,0824.6,5.00,0.00,29.6,26.9,00.0,38.2,31.3,15.0,0000.0,0003.13,0007.67,0002.62
2022-09-19 20:33:00,,0824.5,5.01,0.00,29.6,27.3,00.0,38.2,31.3,14.9,0000.0,0003.20,0008.57,0002.71
2022-09-19 20:34:00,,0824.4,5.00,0.00,29.6,27.6,00.0,38.2,31.3,15.4,0000.0,0003.27,0008.83,0002.78
2022-09-19 20:35:00,,0824.4,5.00,0.00,29.6,27.9,00.0,38.2,31.4,15.6,0000.0,0003.35,0009.20,0002.84
2022-09-19 20:36:00,,0824.6,5.00,0.00,29.6,28.1,00.0,38.2,31.5,15.5,0000.0,0003.43,0009.40,0002.91
2022-09-19 20:37:00,,0824.5,5.00,0.00,29.7,28.3,00.0,38.2,31.5,15.4,0000.0,0003.53,0009.74,0002.99
2022-09-19 20:38:00,,0824.4,4.99,0.00,29.7,28.5,00.0,38.2,31.6,15.7,0000.0,0003.57,0009.52,0003.03
2022-09-19 20:39:00,,0824.4,5.00,0.00,29.7,28.6,00.0,38.3,31.7,15.2,0000.0,0003.55,0009.41,0003.03
2022-09-19 20:40:00,,0824.4,5.01,0.00,29.8,27.6,00.0,38.3,31.7,14.8,0000.0,0003.57,0009.44,0003.04
2022-09-19 20:41:00,,0824.5,5.00,0.00,29.7,26.6,00.0,38.2,31.5,15.2,0000.0,0003.57,0009.46,0003.03
2022-09-19 20:42:00,,0824.5,4.99,0.00,29.7,26.7,00.0,38.2,31.5,15.7,0000.0,0003.56,0009.28,0003.01
2022-09-19 20:43:00,,0824.4,5.00,0.00,29.6,26.9,00.0,38.2,31.3,15.8,0000.0,0003.55,0008.79,0002.99
2022-09-19 20:44:00,,0824.4,5.01,0.00,29.6,27.2,00.0,38.2,31.3,16.1,0000.0,0003.56,0008.48,0002.99
2022-09-19 20:45:00,,0824.4,4.99,0.00,29.6,27.6,00.0,38.2,31.3,15.9,0000.0,0003.55,0008.34,0002.99
2022-09-19 20:46:00,,0824.4,5.02,0.00,29.6,27.8,00.0,38.2,31.4,15.9,0000.0,0003.55,0008.10,0002.97
2022-09-19 20:47:00,,0824.5,4.99,0.00,29.6,28.1,00.0,38.2,31.5,16.1,0000.0,0003.57,0009.00,0002.95
2022-09-19 20:48:00,,0824.4,5.00,0.00,29.7,28.3,00.0,38.2,31.5,15.9,0000.0,0003.56,0009.04,0002.93
2022-09-19 20:49:00,,0824.4,5.00,0.00,29.7,28.5,00.0,38.2,31.6,15.9,0000.0,0003.52,0009.36,0002.90
2022-09-19 20:50:00,,0824.4,5.01,0.00,29.7,28.6,00.0,38.3,31.7,15.4,0000.0,0003.51,0010.19,0002.88
2022-09-19 20:51:00,,0824.4,5.00,0.00,29.8,27.9,00.0,38.3,31.7,15.4,0000.0,0003.48,0010.13,0002.87
2022-09-19 20:52:00,,0824.4,5.00,0.00,29.7,26.8,00.0,38.3,31.6,15.6,0000.0,0003.46,0010.10,0002.86
2022-09-19 20:53:00,,0824.4,5.01,0.00,29.7,26.7,00.0,38.2,31.5,15.9,0000.0,0003.46,0010.07,0002.86
2022-09-19 20:54:00,,0824.5,5.00,0.00,29.7,27.0,00.0,38.2,31.4,15.2,0000.0,0003.44,0009.74,0002.85
2022-09-19 20:55:00,,0824.5,5.00,0.00,29.6,27.3,00.0,38.2,31.3,14.0,0000.0,0003.39,0009.39,0002.82
2022-09-19 20:56:00,,0824.5,5.00,0.00,29.6,27.6,00.0,38.2,31.4,13.9,0000.0,0003.36,0009.56,0002.80
2022-09-19 20:57:00,,0824.5,5.00,0.00,29.6,27.8,00.0,38.2,31.4,14.6,0000.0,0003.32,0009.42,0002.80
2022-09-19 20:58:00,,0824.4,4.99,0.00,29.6,28.1,00.0,38.2,31.5,15.1,0000.0,0003.26,0008.45,0002.78
2022-09-19 20:59:00,,0824.4,5.00,0.00,29.7,28.3,00.0,38.2,31.6,15.2,0000.0,0003.20,0008.68,0002.75
